VTK601 UUEE-URMM

Flight info

Callsign VTK601
Flight time N/A
Altitude 35000
Route TOGMO3H TOGMO M56 ABAGI B105 NIMTA/K0845F360 B105 NATIT/K0839F350 DCT MOLED DCT SL DCT SUBED DCT LIDUS/K0837F360 G242 ZG/K0839F350 DCT ITAKA/K0843F360 DCT OBBUD DCT AMKOL DCT GOTIK DCT MEMZA A962 OKARU OKARU5A
Aircraft A321/M-SDE3FGHIRWY/LB1

Departure

Time 2026-05-04 08:52
Airport Sheremetyevo International Airport (UUEE)

Arrival

Time N/A
Airport Mineralnye Vody Airport (URMM)
Time Latitude Longitude Altitude Speed Heading
2026-05-04 08:48 55.97928 37.42138 639 ft 0 kts 255°
2026-05-04 08:49 55.97927 37.42136 639 ft 0 kts 255°
2026-05-04 08:50 55.97735 37.42514 642 ft 18 kts 74°
2026-05-04 08:50 55.97754 37.42738 643 ft 18 kts 115°
2026-05-04 08:51 55.97645 37.42813 641 ft 17 kts 182°
2026-05-04 08:51 55.97581 37.42677 643 ft 14 kts 255°
2026-05-04 08:51 55.97548 37.42457 639 ft 35 kts 255°
2026-05-04 08:51 55.97426 37.41639 639 ft 99 kts 255°
2026-05-04 08:52 55.97205 37.40159 641 ft 147 kts 255°
2026-05-04 08:52 55.96910 37.38231 886 ft 164 kts 255°
2026-05-04 08:52 55.96602 37.36295 1506 ft 162 kts 254°
2026-05-04 08:52 55.96295 37.34352 2105 ft 163 kts 254°
2026-05-04 08:53 55.95981 37.32364 2530 ft 174 kts 254°
2026-05-04 08:54 55.92915 37.12973 6148 ft 254 kts 257°
2026-05-04 08:55 55.92433 37.09921 6850 ft 257 kts 257°
2026-05-04 08:55 55.91946 37.06828 7553 ft 260 kts 258°
2026-05-04 08:55 55.91740 37.03681 8208 ft 260 kts 276°
2026-05-04 08:55 55.92190 37.00566 8853 ft 262 kts 296°
2026-05-04 08:57 56.03675 36.95236 11079 ft 300 kts 28°
2026-05-04 09:01 56.08515 37.40100 16219 ft 362 kts 157°
2026-05-04 09:01 56.06224 37.42047 16768 ft 365 kts 157°
2026-05-04 09:01 56.03918 37.43974 17302 ft 367 kts 157°
2026-05-04 09:01 56.01588 37.45909 17823 ft 370 kts 157°
2026-05-04 09:02 55.99246 37.47861 18321 ft 373 kts 156°
2026-05-04 09:02 55.97033 37.50327 18739 ft 378 kts 142°
2026-05-04 09:02 55.95180 37.53681 19182 ft 382 kts 127°
2026-05-04 09:02 55.93800 37.57733 19627 ft 384 kts 113°
2026-05-04 09:03 55.92975 37.62263 20061 ft 385 kts 100°
2026-05-04 09:03 55.92467 37.66961 20499 ft 387 kts 99°
2026-05-04 09:03 55.91925 37.71673 20966 ft 389 kts 104°
2026-05-04 09:03 55.91003 37.76223 21407 ft 392 kts 115°
2026-05-04 09:04 55.89697 37.80505 21831 ft 394 kts 119°
2026-05-04 09:04 55.88366 37.84722 22237 ft 397 kts 119°
2026-05-04 09:04 55.86998 37.89078 22671 ft 399 kts 118°
2026-05-04 09:04 55.85612 37.93374 23054 ft 401 kts 124°
2026-05-04 09:05 55.83777 37.97110 23421 ft 403 kts 141°
2026-05-04 09:05 55.81456 37.99764 23725 ft 403 kts 158°
2026-05-04 09:05 55.78743 38.01176 24031 ft 401 kts 175°
2026-05-04 09:05 55.76004 38.01186 24311 ft 398 kts 191°
2026-05-04 09:06 55.73324 37.99846 24584 ft 394 kts 208°
2026-05-04 09:07 55.55834 37.88338 26068 ft 428 kts 176°
2026-05-04 09:08 55.52843 37.88857 26223 ft 434 kts 176°
2026-05-04 09:08 55.49814 37.89365 26350 ft 441 kts 176°
2026-05-04 09:08 55.46737 37.89868 26480 ft 447 kts 176°
2026-05-04 09:08 55.43622 37.90411 26610 ft 453 kts 173°
2026-05-04 09:09 55.40511 37.91535 26740 ft 461 kts 165°
2026-05-04 09:09 55.37477 37.93456 26871 ft 467 kts 156°
2026-05-04 09:09 55.34596 37.96164 27002 ft 473 kts 148°
2026-05-04 09:09 55.31855 37.99408 27133 ft 477 kts 146°
2026-05-04 09:10 55.29091 38.02681 27263 ft 482 kts 146°
2026-05-04 09:10 55.26292 38.05966 27400 ft 485 kts 146°
2026-05-04 09:10 55.23481 38.09249 27533 ft 488 kts 146°
2026-05-04 09:10 55.20653 38.12551 27712 ft 489 kts 146°
2026-05-04 09:11 55.17824 38.15845 27951 ft 488 kts 146°
2026-05-04 09:11 55.14999 38.19132 28225 ft 487 kts 146°
2026-05-04 09:11 55.12185 38.22412 28483 ft 486 kts 146°
2026-05-04 09:11 55.09377 38.25686 28715 ft 485 kts 146°
2026-05-04 09:12 55.06566 38.28959 28963 ft 485 kts 146°
2026-05-04 09:12 55.03760 38.32212 29195 ft 485 kts 146°
2026-05-04 09:14 54.84116 38.54782 30688 ft 483 kts 146°
2026-05-04 09:14 54.81313 38.57991 30887 ft 482 kts 146°
2026-05-04 09:14 54.78513 38.61189 31099 ft 482 kts 146°
2026-05-04 09:14 54.75712 38.64376 31321 ft 481 kts 147°
2026-05-04 09:15 54.72923 38.67434 31525 ft 481 kts 148°
2026-05-04 09:15 54.70060 38.70434 31718 ft 481 kts 149°
2026-05-04 09:15 54.67169 38.73378 31916 ft 481 kts 150°
2026-05-04 09:15 54.64281 38.76295 32118 ft 481 kts 150°
2026-05-04 09:17 54.41622 39.00489 33762 ft 478 kts 137°
2026-05-04 09:18 54.39332 39.04616 33962 ft 477 kts 128°
2026-05-04 09:18 54.37440 39.09277 34116 ft 476 kts 118°
2026-05-04 09:18 54.35988 39.14363 34257 ft 474 kts 110°
2026-05-04 09:18 54.34755 39.19602 34403 ft 474 kts 110°
2026-05-04 09:19 54.33509 39.24829 34575 ft 473 kts 111°
2026-05-04 09:19 54.32251 39.30042 34743 ft 473 kts 111°
2026-05-04 09:19 54.30987 39.35232 34905 ft 473 kts 111°
2026-05-04 09:19 54.29715 39.40439 34962 ft 473 kts 111°
2026-05-04 09:20 54.27172 39.50826 34966 ft 473 kts 111°
2026-05-04 09:20 54.24630 39.61199 34958 ft 473 kts 111°
2026-05-04 09:21 54.22081 39.71551 34956 ft 473 kts 111°
2026-05-04 09:21 54.19526 39.81900 34965 ft 473 kts 111°
2026-05-04 09:22 54.16956 39.92230 34958 ft 473 kts 111°
2026-05-04 09:22 54.14376 40.02556 34960 ft 473 kts 112°
2026-05-04 09:23 54.11823 40.12893 34978 ft 473 kts 108°
2026-05-04 09:23 54.09929 40.23593 34972 ft 472 kts 105°
2026-05-04 09:25 54.02428 40.66445 34979 ft 473 kts 105°
2026-05-04 09:26 54.00522 40.77140 34984 ft 473 kts 105°
2026-05-04 09:26 53.98606 40.87827 34989 ft 473 kts 105°
2026-05-04 09:27 53.96689 40.98501 34983 ft 472 kts 105°
2026-05-04 09:27 53.94786 41.09175 34987 ft 472 kts 104°
2026-05-04 09:28 53.93035 41.19904 34983 ft 472 kts 103°
2026-05-04 09:28 53.91324 41.30643 34989 ft 471 kts 103°
2026-05-04 09:29 53.89575 41.41348 34988 ft 471 kts 104°
2026-05-04 09:29 53.87805 41.51970 35007 ft 471 kts 104°
2026-05-04 09:30 53.86000 41.62675 34994 ft 472 kts 104°
2026-05-04 09:30 53.84190 41.73369 34992 ft 472 kts 104°
2026-05-04 09:31 53.82363 41.84046 34996 ft 472 kts 104°
2026-05-04 09:31 53.80525 41.94701 34997 ft 472 kts 104°
2026-05-04 09:32 53.78685 42.05345 34993 ft 471 kts 105°
2026-05-04 09:34 53.71224 42.47860 35005 ft 472 kts 105°
2026-05-04 09:34 53.69071 42.58313 35007 ft 473 kts 116°
2026-05-04 09:35 53.65213 42.67187 35006 ft 475 kts 136°
2026-05-04 09:35 53.62653 42.70685 35003 ft 474 kts 147°
2026-05-04 09:35 53.59778 42.73399 35009 ft 474 kts 157°
2026-05-04 09:37 53.35515 42.90874 35019 ft 474 kts 158°
2026-05-04 09:38 53.29439 42.95194 35023 ft 474 kts 157°
2026-05-04 09:38 53.23367 42.99513 35024 ft 474 kts 157°
2026-05-04 09:39 53.17300 43.03827 35017 ft 474 kts 157°
2026-05-04 09:39 53.11233 43.08143 35028 ft 474 kts 157°
2026-05-04 09:40 53.05208 43.12610 35034 ft 474 kts 156°
2026-05-04 09:40 52.99209 43.17143 35034 ft 474 kts 156°
2026-05-04 09:42 52.76141 43.34144 35046 ft 473 kts 156°
2026-05-04 09:43 52.70119 43.38547 35032 ft 473 kts 156°
2026-05-04 09:43 52.64089 43.42943 35037 ft 474 kts 156°
2026-05-04 09:44 52.58064 43.47322 35047 ft 473 kts 156°
2026-05-04 09:46 52.34019 43.64653 35047 ft 473 kts 157°
2026-05-04 09:46 52.27990 43.68970 35054 ft 473 kts 156°
2026-05-04 09:47 52.21964 43.73279 35044 ft 473 kts 156°
2026-05-04 09:49 51.97846 43.90357 35069 ft 472 kts 156°
2026-05-04 09:51 51.76783 44.05127 35071 ft 472 kts 156°
2026-05-04 09:51 51.70746 44.09336 35048 ft 472 kts 157°
2026-05-04 09:52 51.64713 44.13513 35056 ft 472 kts 157°
2026-05-04 09:52 51.58674 44.17673 35057 ft 472 kts 157°
2026-05-04 09:53 51.52636 44.21846 35066 ft 472 kts 157°
2026-05-04 09:53 51.46599 44.26009 35062 ft 472 kts 157°
2026-05-04 09:54 51.40561 44.30154 35061 ft 472 kts 157°
2026-05-04 09:54 51.34516 44.34297 35066 ft 473 kts 157°
2026-05-04 09:55 51.28507 44.38399 35066 ft 472 kts 157°
2026-05-04 09:55 51.22462 44.42507 35057 ft 472 kts 157°
2026-05-04 09:56 51.16262 44.45882 35060 ft 471 kts 171°
2026-05-04 09:56 51.09757 44.46341 35061 ft 468 kts 185°
2026-05-04 09:57 51.03243 44.45700 35060 ft 469 kts 185°
2026-05-04 09:57 50.96730 44.45104 35065 ft 469 kts 185°
2026-05-04 09:58 50.90203 44.44513 35051 ft 470 kts 185°
2026-05-04 09:58 50.83679 44.43908 35071 ft 469 kts 185°
2026-05-04 10:00 50.57623 44.41489 35077 ft 468 kts 185°
2026-05-04 10:04 50.12300 44.37360 35088 ft 463 kts 186°
2026-05-04 10:04 50.05864 44.36788 35090 ft 463 kts 186°
2026-05-04 10:05 49.99477 44.36220 35080 ft 462 kts 186°
2026-05-04 10:05 49.93070 44.35642 35090 ft 460 kts 186°
2026-05-04 10:06 49.86689 44.35072 35092 ft 459 kts 186°
2026-05-04 10:06 49.80320 44.34497 35091 ft 458 kts 186°
2026-05-04 10:08 49.58080 44.32942 35084 ft 461 kts 176°
2026-05-04 10:08 49.51874 44.35579 35084 ft 468 kts 160°
2026-05-04 10:09 49.45906 44.39416 35080 ft 468 kts 160°
2026-05-04 10:09 49.39883 44.43226 35073 ft 468 kts 161°
2026-05-04 10:10 49.33858 44.47027 35079 ft 468 kts 161°
2026-05-04 10:10 49.27833 44.50831 35069 ft 468 kts 161°
2026-05-04 10:11 49.21809 44.54627 35074 ft 468 kts 161°
2026-05-04 10:11 49.15789 44.58406 35062 ft 468 kts 161°
2026-05-04 10:12 49.09770 44.62185 35080 ft 467 kts 161°
2026-05-04 10:12 49.03762 44.65953 35087 ft 467 kts 161°
2026-05-04 10:13 48.97747 44.69697 35084 ft 467 kts 162°
2026-05-04 10:13 48.91741 44.73427 35063 ft 466 kts 162°
2026-05-04 10:14 48.85751 44.77161 35068 ft 465 kts 160°
2026-05-04 10:16 48.67385 44.97751 35076 ft 471 kts 147°
2026-05-04 10:16 48.64801 45.00793 35078 ft 470 kts 147°
2026-05-04 10:16 48.59645 45.06856 35080 ft 470 kts 147°
2026-05-04 10:17 48.54496 45.12921 35075 ft 469 kts 147°
2026-05-04 10:19 48.35999 45.32699 35059 ft 460 kts 159°
2026-05-04 10:19 48.33122 45.34807 35060 ft 460 kts 159°
2026-05-04 10:19 48.27370 45.39034 35051 ft 460 kts 159°
2026-05-04 10:20 48.21627 45.43247 35054 ft 459 kts 159°
2026-05-04 10:20 48.15920 45.47422 35055 ft 459 kts 159°
2026-05-04 10:21 48.10180 45.51604 35040 ft 459 kts 159°
2026-05-04 10:21 48.04448 45.55772 35052 ft 458 kts 159°
2026-05-04 10:22 47.95854 45.61994 35055 ft 457 kts 159°
2026-05-04 10:23 47.90126 45.66138 35056 ft 457 kts 158°
2026-05-04 10:25 47.67404 45.82461 35062 ft 451 kts 158°
2026-05-04 10:25 47.61759 45.86504 35050 ft 450 kts 158°
2026-05-04 10:26 47.56124 45.90520 35052 ft 449 kts 158°
2026-05-04 10:26 47.50495 45.94497 35049 ft 448 kts 159°
2026-05-04 10:27 47.44872 45.98475 35049 ft 448 kts 158°
2026-05-04 10:27 47.39262 46.02446 35040 ft 447 kts 158°
2026-05-04 10:28 47.33654 46.06415 35041 ft 447 kts 158°
2026-05-04 10:28 47.28044 46.10386 35039 ft 447 kts 158°
2026-05-04 10:29 47.22476 46.14318 35028 ft 446 kts 158°
2026-05-04 10:29 47.16886 46.18245 35034 ft 445 kts 158°
2026-05-04 10:30 47.11295 46.22157 35037 ft 445 kts 158°
2026-05-04 10:30 47.05938 46.26733 35032 ft 451 kts 144°
2026-05-04 10:31 47.01779 46.33688 35022 ft 460 kts 126°
2026-05-04 10:32 46.90461 46.59742 35020 ft 459 kts 127°
2026-05-04 10:33 46.87021 46.67594 35012 ft 458 kts 127°
2026-05-04 10:33 46.83578 46.75421 35016 ft 457 kts 127°
2026-05-04 10:34 46.80157 46.83175 35015 ft 457 kts 127°
2026-05-04 10:34 46.76711 46.90970 35008 ft 457 kts 127°
2026-05-04 10:35 46.73259 46.98739 34998 ft 456 kts 127°
2026-05-04 10:35 46.69806 47.06502 34999 ft 456 kts 127°
2026-05-04 10:36 46.66384 47.14289 34988 ft 456 kts 126°
2026-05-04 10:36 46.63002 47.22108 34976 ft 457 kts 126°
2026-05-04 10:37 46.60183 47.28601 34976 ft 457 kts 126°
2026-05-04 10:37 46.56768 47.36400 34980 ft 457 kts 126°
2026-05-04 10:39 46.44788 47.63532 34963 ft 455 kts 126°
2026-05-04 10:40 46.41362 47.71261 34967 ft 456 kts 126°
2026-05-04 10:40 46.37931 47.78981 34968 ft 456 kts 127°
2026-05-04 10:41 46.34515 47.86641 34946 ft 456 kts 127°
2026-05-04 10:41 46.31070 47.94339 34945 ft 456 kts 127°
2026-05-04 10:42 46.28061 48.02456 34938 ft 463 kts 113°
2026-05-04 10:42 46.26500 48.11543 34945 ft 468 kts 105°
2026-05-04 10:43 46.25103 48.20731 34927 ft 468 kts 105°
2026-05-04 10:44 46.19517 48.52465 34952 ft 460 kts 123°
2026-05-04 10:45 46.17726 48.56250 34950 ft 455 kts 134°
2026-05-04 10:45 46.15493 48.59431 34941 ft 449 kts 145°
2026-05-04 10:45 46.12919 48.61926 34940 ft 444 kts 155°
2026-05-04 10:45 46.10097 48.63671 34940 ft 439 kts 166°
2026-05-04 10:46 46.07159 48.64870 34933 ft 439 kts 167°
2026-05-04 10:46 46.01275 48.67232 34937 ft 440 kts 167°
2026-05-04 10:47 45.95381 48.69606 34942 ft 440 kts 167°
2026-05-04 10:47 45.89485 48.71971 34942 ft 440 kts 167°
2026-05-04 10:49 45.65940 48.81357 34969 ft 436 kts 167°
2026-05-04 10:50 45.60146 48.83654 34965 ft 434 kts 167°
2026-05-04 10:52 45.36993 48.92788 34949 ft 430 kts 166°
2026-05-04 10:52 45.31228 48.95057 34949 ft 430 kts 166°
2026-05-04 10:54 45.08223 49.04026 34945 ft 428 kts 166°
2026-05-04 10:56 44.85328 49.12882 34915 ft 426 kts 166°
2026-05-04 10:57 44.79605 49.15087 35050 ft 426 kts 167°
2026-05-04 10:57 44.76749 49.16183 35253 ft 425 kts 167°
2026-05-04 10:57 44.73895 49.17278 35421 ft 425 kts 167°